Date,TemperatureHighF,TemperatureAvgF,TemperatureLowF,DewpointHighF,DewpointAvgF,DewpointLowF,HumidityHigh,HumidityAvg,HumidityLow,PressureMaxIn,PressureMinIn,WindSpeedMaxMPH,WindSpeedAvgMPH,GustSpeedMaxMPH,PrecipitationSumIn
2013-1-1,60.3,50.6,48.6,46.8,40.6,37.7,74,69,61,30.23,30.11,3,1,8,0.00
2013-1-3,59.7,53.8,49.3,43.0,40.5,37.6,72,61,44,30.63,30.49,9,5,19,0.00
2013-1-4,59.0,52.5,47.1,45.7,40.9,34.6,77,65,50,30.66,30.56,6,2,12,0.00
2013-1-5,61.9,55.2,47.7,49.9,40.4,29.0,76,59,35,30.60,30.43,3,1,5,0.00
2013-1-6,68.5,59.9,53.8,43.9,34.3,26.5,47,38,30,30.42,30.35,4,1,5,0.00
2013-1-7,68.2,59.8,53.8,44.9,36.6,29.3,51,42,32,30.41,30.32,3,1,4,0.00
2013-1-8,67.3,59.0,52.9,42.2,35.5,27.9,54,42,31,30.42,30.34,5,1,7,0.00
2013-1-9,62.2,55.8,50.0,42.5,38.5,33.6,56,52,46,30.38,30.28,12,4,23,0.00
2013-1-10,64.8,59.2,55.0,48.5,43.7,40.4,60,57,51,30.33,30.25,8,3,10,0.00
2013-1-11,65.3,57.0,52.0,48.5,41.7,33.4,63,56,48,30.26,30.21,7,2,8,0.00
2013-1-12,61.7,54.5,48.4,40.6,36.8,31.6,65,52,42,30.24,30.17,9,2,14,0.00
2013-1-13,55.9,49.3,43.3,39.8,34.3,29.0,78,57,43,30.17,30.02,5,2,12,0.06
2013-1-14,54.9,47.2,41.0,31.6,28.9,25.1,63,49,39,30.24,30.03,14,5,19,0.00
2013-1-15,56.5,47.3,43.0,31.0,27.4,21.1,59,46,36,30.19,30.11,19,6,24,0.00
2013-1-16,48.6,45.8,44.4,41.2,33.5,27.3,86,63,50,30.18,30.07,7,3,10,0.16
2013-1-17,58.1,51.6,45.5,43.8,40.6,37.2,89,67,51,30.13,30.01,8,3,12,0.06
2013-1-18,59.0,53.9,50.7,49.2,46.3,43.8,81,76,70,30.06,29.87,7,2,10,0.00
2013-1-19,51.4,46.2,41.2,46.6,41.6,34.2,91,84,76,29.84,29.45,13,6,21,1.07
2013-1-20,51.3,45.1,38.7,40.7,35.0,29.7,81,68,54,29.96,29.62,8,4,12,0.03
2013-1-21,53.6,47.5,43.0,42.2,35.2,29.2,87,63,50,30.10,29.84,9,4,21,0.19
2013-1-22,49.3,43.0,39.4,39.7,33.4,29.1,82,69,58,30.08,29.95,5,2,9,0.10
2013-1-23,49.8,43.2,36.1,36.0,32.0,28.5,83,65,46,30.20,29.94,6,4,11,0.19
2013-1-24,55.9,49.2,44.2,42.4,39.3,35.6,86,69,57,30.12,29.96,12,5,17,0.06
2013-1-25,54.1,48.3,43.9,45.0,39.2,33.5,79,71,63,30.06,29.98,5,2,8,0.00
2013-1-26,63.1,55.5,49.8,45.7,39.8,26.1,75,57,31,30.19,30.04,16,4,20,0.00
2013-1-27,64.2,56.7,51.4,45.4,33.6,22.8,76,43,29,30.19,30.12,4,2,8,0.00
2013-1-28,61.0,53.1,46.9,45.7,32.7,21.4,79,47,25,30.42,30.18,6,3,12,0.00
2013-1-29,66.0,57.3,48.6,37.6,30.1,17.7,50,36,24,30.40,30.34,4,1,6,0.00
2013-1-30,69.6,61.5,53.4,37.5,28.4,20.2,32,28,26,30.45,30.38,5,2,6,0.00
2013-1-31,70.0,61.8,56.1,39.1,31.4,21.3,46,32,24,30.52,30.43,5,2,7,0.00
2013-2-1,70.3,61.9,54.0,43.7,34.4,27.6,43,36,28,30.45,30.22,5,2,9,0.00
2013-2-2,59.2,53.8,47.8,41.0,33.3,25.9,66,46,38,30.29,30.04,8,5,18,0.00
2013-2-3,52.3,47.3,41.7,32.7,23.6,18.4,54,40,26,30.43,30.18,20,7,45,0.00
2013-2-4,54.9,47.8,41.0,36.5,32.3,22.9,66,55,44,30.45,30.42,5,2,11,0.00
2013-2-5,58.6,51.9,43.3,41.2,35.2,29.6,67,53,39,30.41,30.23,11,2,22,0.00
2013-2-6,58.8,50.8,46.0,35.8,27.3,17.6,52,41,27,30.23,30.05,11,4,21,0.00
2013-2-7,53.8,47.2,41.5,27.0,23.2,19.6,53,39,26,30.27,30.17,16,4,29,0.00
2013-2-8,51.6,45.0,40.8,27.6,22.9,18.2,47,41,37,30.20,30.08,6,2,15,0.00
2013-2-9,55.0,46.6,40.5,33.3,25.4,18.1,57,44,32,30.33,30.07,14,5,23,0.00
2013-2-10,55.9,48.5,41.2,36.6,29.7,22.6,70,49,34,30.29,30.02,5,2,12,0.00
2013-2-11,50.2,45.6,40.6,38.8,32.2,27.0,73,60,44,30.07,29.92,6,5,13,0.00
2013-2-12,53.2,44.7,38.1,30.3,27.1,24.1,65,51,39,30.18,29.96,12,5,13,0.00
2013-2-13,61.5,52.5,43.7,38.3,32.6,20.6,58,47,39,30.25,30.07,13,6,20,0.00
2013-2-14,65.3,57.1,50.2,42.2,36.4,33.5,55,46,38,30.25,30.20,6,2,8,0.00
2013-2-15,64.9,57.0,50.5,41.1,36.2,32.1,52,46,38,30.22,30.16,6,2,8,0.00
2013-2-16,62.2,55.4,49.5,44.2,37.3,29.8,59,51,39,30.18,30.11,5,1,8,0.00
2013-2-17,58.5,52.0,46.2,40.7,38.7,37.3,72,61,47,30.10,29.98,8,2,12,0.00
2013-2-18,57.7,51.9,47.8,46.4,40.9,36.3,74,66,62,30.01,29.90,7,2,12,0.04
2013-2-19,50.0,47.5,46.0,44.0,42.2,40.6,88,82,70,29.93,29.84,8,3,14,0.62
2013-2-20,52.9,48.2,44.1,46.0,41.4,37.5,88,78,68,30.06,29.85,6,2,9,0.23
2013-2-21,55.9,50.2,43.7,46.8,40.8,32.9,87,70,56,30.05,29.95,6,2,9,0.00
2013-2-22,51.6,48.9,45.1,47.9,44.6,39.6,88,85,79,29.93,29.80,5,2,12,0.42
2013-2-23,51.1,44.8,41.9,40.9,35.9,30.7,84,71,57,30.06,29.69,9,2,14,0.16
2013-2-24,55.6,46.6,39.9,33.4,28.6,24.2,56,50,40,30.19,30.01,15,5,22,0.00
2013-2-25,54.5,46.1,38.3,40.0,26.8,20.2,58,48,32,30.24,30.06,8,4,13,0.00
2013-2-26,54.5,46.4,40.3,40.0,31.7,21.2,62,56,48,30.27,30.09,9,3,14,0.00
2013-2-27,49.6,43.0,38.8,38.4,32.3,26.0,82,66,51,30.24,30.02,17,6,29,0.00
2013-2-28,49.5,41.7,36.7,40.6,34.3,29.5,91,76,57,30.01,29.89,13,3,23,0.49
2013-3-1,55.6,45.5,37.4,36.7,32.8,28.3,86,62,46,30.17,29.95,25,6,31,0.01
2013-3-2,52.0,47.4,45.1,39.9,34.1,28.1,77,60,49,30.18,30.07,13,5,28,0.00
2013-3-3,54.0,49.0,45.5,46.3,40.9,33.0,93,74,54,30.11,29.90,9,2,12,0.00
2013-3-4,59.0,53.7,46.4,47.8,41.8,33.0,94,67,39,29.89,29.48,22,7,35,0.04
2013-3-5,56.8,52.0,48.4,49.7,47.1,44.2,96,84,69,29.61,29.50,7,2,11,0.98
2013-3-6,59.2,52.8,48.9,56.5,50.7,47.3,99,93,73,29.95,29.57,7,2,13,0.80
2013-3-7,55.9,53.8,49.6,55.9,53.1,48.5,100,98,93,30.00,29.90,15,4,24,1.44
2013-3-8,62.8,55.3,50.5,54.9,50.9,46.0,97,86,65,30.05,29.98,12,3,22,0.00
2013-3-9,54.3,51.9,47.8,54.0,51.0,40.3,100,97,75,30.03,29.96,10,2,13,0.26
2013-3-10,57.0,50.0,46.2,51.5,44.7,39.8,98,82,68,30.05,29.96,7,2,10,0.17
2013-3-11,58.3,49.8,45.3,49.8,43.6,40.4,96,79,66,30.08,30.00,8,3,15,0.08
2013-3-12,50.5,47.8,45.0,50.5,46.0,41.3,100,94,78,30.03,29.74,12,3,18,0.31
2013-3-13,52.3,46.4,42.3,42.8,32.8,24.7,86,60,42,30.07,29.74,10,4,20,0.00
2013-3-14,58.5,47.6,39.7,28.7,23.2,15.4,54,39,25,30.20,30.04,26,6,33,0.00
2013-3-15,55.6,48.7,43.9,39.8,29.2,18.0,68,47,33,30.24,30.15,10,3,14,0.00
2013-3-16,55.0,49.7,45.0,50.0,34.2,17.8,89,58,28,30.16,29.97,9,2,14,0.07
2013-3-17,61.0,56.1,50.4,54.9,46.7,34.8,96,73,42,29.97,29.73,9,2,11,0.19
2013-3-18,65.5,56.2,50.4,51.4,40.7,21.5,95,60,28,29.91,29.76,10,3,14,0.02
2013-3-19,57.7,53.3,51.3,51.9,43.6,21.7,99,74,25,29.89,29.74,7,2,14,0.72
2013-3-20,61.9,53.5,45.9,51.7,42.5,32.8,100,69,39,30.22,29.78,13,3,21,0.00
2013-3-21,63.9,53.7,48.9,46.6,40.6,35.3,74,62,43,30.22,30.07,10,2,15,0.00
2013-3-22,60.3,52.5,47.1,52.6,43.2,31.6,97,73,42,30.07,29.92,8,2,15,0.04
2013-3-23,57.7,48.6,45.0,46.9,42.6,36.3,99,80,62,29.94,29.75,9,2,14,0.57
2013-3-24,57.9,49.0,43.5,51.0,44.1,38.6,99,83,65,29.98,29.79,10,3,16,0.09
2013-3-25,59.7,54.6,51.4,50.2,46.6,38.5,86,75,61,30.14,30.07,12,4,15,0.00
2013-3-26,64.4,54.9,49.3,54.9,49.1,43.8,93,81,63,30.07,29.90,11,2,17,0.00
2013-3-27,62.8,54.7,49.6,54.4,49.9,44.3,96,84,59,29.91,29.81,10,2,15,0.00
2013-3-28,67.6,57.3,51.3,54.0,48.0,44.1,93,72,49,30.14,29.86,14,3,21,0.00
2013-3-29,68.5,58.7,51.6,52.8,47.5,41.2,83,67,45,30.16,30.09,9,3,13,0.00
2013-3-30,68.2,59.5,53.8,54.3,50.0,42.2,98,73,47,30.15,30.05,9,2,15,0.57
2013-3-31,61.0,56.7,52.9,56.7,50.4,41.5,99,80,56,30.06,29.86,8,2,10,0.02
2013-4-1,63.7,55.6,48.7,52.2,47.0,42.6,99,76,48,30.01,29.78,11,5,17,0.19
2013-4-2,62.4,53.1,46.0,51.2,44.9,39.9,89,74,52,30.08,29.96,10,3,16,0.05
2013-4-3,57.0,51.6,47.7,48.9,45.1,37.1,98,80,52,29.97,29.77,12,3,19,0.17
2013-4-4,55.8,49.2,45.0,49.6,45.8,42.7,95,88,74,29.85,29.72,7,2,12,0.09
2013-4-5,54.7,48.7,45.9,53.0,45.7,37.6,98,90,64,30.02,29.78,6,2,10,0.25
2013-4-6,62.2,49.9,41.7,41.2,36.5,32.9,80,61,41,30.24,30.03,9,2,13,0.00
2013-4-7,60.4,52.3,46.8,42.7,35.7,28.2,69,53,45,30.24,30.11,11,3,17,0.00
2013-4-8,70.5,59.8,53.1,48.6,37.3,21.9,62,44,26,30.13,30.03,8,2,13,0.00
2013-4-9,70.2,60.3,54.7,48.1,38.3,26.7,62,45,27,30.13,30.02,9,3,15,0.00
2013-4-10,68.4,61.3,54.0,53.9,47.3,39.2,70,60,50,30.22,30.12,10,3,16,0.00
2013-4-11,72.1,64.4,57.7,55.9,49.0,44.2,68,58,41,30.21,30.07,10,2,15,0.00
2013-4-12,69.6,61.7,55.6,48.7,43.6,34.8,64,52,43,30.17,30.08,8,3,11,0.00
2013-4-13,69.4,60.7,56.1,52.5,47.4,43.3,74,62,47,30.26,30.15,7,2,12,0.00
2013-4-14,68.4,60.4,53.6,53.4,48.1,39.9,94,65,46,30.29,30.19,7,2,12,0.00
2013-4-15,69.4,60.2,52.9,57.6,52.9,47.2,94,77,62,30.33,30.25,6,2,11,0.00
2013-4-16,74.1,64.9,57.6,61.2,56.0,49.4,86,73,63,30.29,30.20,7,1,10,0.00
2013-4-17,67.8,62.6,51.6,58.5,53.0,44.2,97,72,46,30.28,30.21,7,2,11,0.00
2013-4-18,77.7,69.1,64.2,60.1,50.4,39.6,72,52,32,30.28,30.16,5,1,7,0.00
2013-4-19,72.1,64.7,54.9,59.7,51.9,41.0,98,65,39,30.20,30.09,5,1,8,0.00
2013-4-20,55.6,53.5,52.0,54.5,52.8,51.4,99,97,92,30.28,30.22,7,2,12,0.06
2013-4-21,59.9,54.1,52.2,55.2,52.0,48.6,99,93,77,30.26,30.13,4,1,7,0.00
2013-4-22,57.9,53.4,50.9,53.4,50.8,48.2,98,91,76,30.16,30.08,8,2,12,0.01
2013-4-23,56.1,52.2,49.6,51.6,48.3,45.0,98,87,74,30.30,30.15,12,3,18,0.02
2013-4-24,61.5,53.6,48.2,49.5,45.4,41.1,94,75,53,30.30,30.24,11,2,17,0.00
2013-4-25,67.8,57.1,48.0,51.9,46.3,38.2,94,69,50,30.25,30.03,9,2,14,0.00
2013-4-26,66.0,59.2,52.0,56.2,50.9,45.4,92,74,60,30.08,30.02,9,2,11,0.00
2013-4-27,68.0,60.8,53.2,58.3,53.0,48.1,90,76,59,30.01,29.77,11,3,17,0.00
2013-4-28,59.4,49.8,42.1,48.1,42.0,34.6,90,75,50,29.85,29.70,18,3,23,0.04
2013-4-29,51.6,44.8,41.0,43.0,37.1,32.3,96,75,52,29.99,29.84,10,3,16,0.06
2013-4-30,52.2,45.1,40.6,47.9,42.6,39.1,96,91,79,30.15,29.94,7,2,11,0.32
2013-5-1,60.8,52.3,45.3,47.3,41.2,34.5,89,67,42,30.18,30.11,8,2,12,0.00
2013-5-2,63.7,54.4,48.2,49.5,46.0,41.0,91,74,51,30.19,30.11,8,2,11,0.00
2013-5-3,61.2,56.2,52.0,53.4,47.9,43.5,90,74,64,30.21,30.12,7,2,14,0.02
2013-5-4,61.3,54.8,50.2,53.2,50.0,46.6,90,84,69,30.30,30.18,6,2,12,0.00
2013-5-5,72.7,60.0,51.4,58.2,51.6,44.1,91,75,53,30.30,30.22,7,2,10,0.00
2013-5-6,74.1,66.2,58.8,52.7,45.1,39.3,59,47,36,30.29,30.21,6,2,10,0.00
2013-5-7,78.3,69.9,62.8,50.3,44.1,36.4,49,40,32,30.25,30.14,6,2,10,0.00
2013-5-8,82.2,73.5,65.7,50.9,42.7,35.5,45,34,23,30.16,30.05,7,2,9,0.00
2013-5-9,84.4,76.6,69.4,49.7,42.3,33.7,37,30,23,30.09,30.03,9,2,13,0.00
2013-5-10,79.3,73.9,68.0,56.6,48.3,40.2,64,42,30,30.14,30.03,7,2,9,0.00
2013-5-11,73.6,66.2,59.5,61.7,56.7,51.0,96,72,57,30.18,30.09,7,2,11,0.00
2013-5-12,64.0,58.7,56.5,59.1,57.6,56.2,99,96,83,30.26,30.15,7,2,13,0.02
2013-5-13,64.9,58.2,56.1,60.3,56.9,56.1,100,96,77,30.26,30.13,7,2,11,0.05
2013-5-14,72.1,62.6,55.9,58.9,52.9,46.4,99,72,45,30.18,29.87,8,2,11,0.00
2013-5-15,71.6,59.8,52.9,54.6,47.7,32.9,94,67,27,29.86,29.69,10,2,21,0.00
2013-5-16,65.5,55.4,50.5,49.1,43.0,35.3,82,64,38,29.85,29.68,13,4,19,0.00
2013-5-17,56.5,50.5,48.0,53.9,47.9,44.3,98,91,80,29.87,29.79,13,3,21,0.19
2013-5-18,63.0,51.7,43.0,47.3,40.5,35.9,97,68,38,30.22,29.87,12,3,19,0.00
2013-5-19,63.1,53.3,45.7,45.5,41.6,36.7,81,66,41,30.22,30.18,11,3,19,0.00
2013-5-20,61.2,53.5,47.8,48.7,41.6,37.3,94,65,48,30.20,30.10,10,3,12,0.24
2013-5-21,50.7,49.3,47.7,49.3,46.1,41.9,97,89,74,30.25,30.08,8,1,11,0.02
2013-5-22,73.4,61.1,49.1,51.2,45.8,41.1,96,59,38,30.26,30.11,9,3,13,0.00
2013-5-23,75.4,68.3,61.3,53.4,48.3,44.4,58,49,37,30.15,30.04,8,2,10,0.00
2013-5-24,77.5,69.4,63.7,53.2,48.5,43.5,59,48,38,30.09,30.02,6,2,10,0.00
2013-5-25,72.7,63.6,56.5,59.7,54.2,44.7,94,73,44,30.15,30.06,6,1,8,0.00
2013-5-26,66.9,58.7,54.1,57.4,54.1,50.5,97,85,58,30.14,30.05,7,2,13,0.00
2013-5-27,65.1,57.8,52.5,55.7,51.3,41.8,95,80,56,30.08,29.98,9,2,15,0.00
2013-5-28,75.4,61.3,54.1,51.7,45.8,41.3,72,57,38,30.05,29.95,9,2,16,0.00
2013-5-29,74.7,62.3,53.1,49.0,40.7,35.2,80,48,27,30.10,30.01,11,2,21,0.00
2013-5-30,70.3,61.8,55.2,48.5,44.4,39.9,65,54,39,30.15,29.99,15,4,24,0.00
2013-5-31,79.3,66.1,55.0,52.5,43.2,31.3,66,46,24,30.15,30.05,13,3,18,0.00
2013-6-1,69.6,64.0,58.3,47.2,39.2,31.3,56,41,30,30.17,30.12,9,3,17,0.00
2013-6-2,72.1,63.7,55.8,51.7,42.6,37.8,57,47,37,30.17,30.11,6,2,12,0.00
2013-6-3,74.5,64.7,57.6,47.1,42.8,39.7,53,45,34,30.17,30.07,10,2,14,0.00
2013-6-4,74.1,70.3,65.8,52.9,46.0,39.5,53,42,35,30.08,29.98,7,3,16,0.00
2013-6-5,74.1,69.0,64.4,50.6,43.3,36.4,50,40,30,30.07,29.94,7,2,12,0.00
2013-6-6,70.7,66.6,60.4,56.1,50.6,44.1,68,57,50,30.16,30.09,7,3,10,0.00
2013-6-7,68.7,62.0,54.5,53.8,45.6,35.9,73,56,40,30.16,30.09,9,4,15,0.00
2013-6-8,69.6,60.0,51.8,51.4,44.0,41.3,74,56,37,30.17,30.08,12,3,19,0.00
2013-6-9,74.7,62.9,55.0,53.4,46.0,42.4,72,55,38,30.15,30.06,10,2,18,0.00
2013-6-10,73.9,66.2,59.5,52.9,48.1,42.6,58,52,43,30.18,30.11,8,3,14,0.00
2013-6-11,79.3,70.7,64.4,53.9,49.5,44.8,57,47,38,30.22,30.17,6,2,10,0.00
2013-6-12,84.0,75.9,68.2,54.9,48.3,36.7,50,38,26,30.23,30.17,8,2,11,0.00
2013-6-13,85.3,76.4,71.2,51.7,44.7,35.9,42,33,25,30.21,30.08,8,2,13,0.00
2013-6-14,82.6,75.4,69.1,53.6,50.4,46.6,50,42,36,30.12,30.06,7,2,11,0.00
2013-6-15,85.5,77.1,70.7,54.1,51.7,49.2,53,42,32,30.12,30.01,7,2,10,0.00
2013-6-16,84.4,75.6,68.7,62.4,53.1,42.4,61,46,32,30.07,29.92,7,2,9,0.00
2013-6-17,85.3,73.9,64.8,59.2,50.5,39.6,55,45,20,29.98,29.88,10,2,15,0.00
2013-6-18,70.7,62.0,54.7,50.9,44.7,41.6,65,54,37,30.07,29.91,11,3,19,0.00
2013-6-19,72.7,64.1,55.4,54.8,49.3,45.5,77,59,46,30.11,30.04,10,2,15,0.00
2013-6-20,75.7,68.2,62.4,54.1,47.8,41.9,56,48,41,30.17,30.07,7,2,11,0.00
2013-6-21,75.0,68.0,62.8,55.5,50.8,46.1,63,54,45,30.18,30.11,7,2,11,0.00
2013-6-22,77.5,67.4,59.5,53.9,49.7,45.9,66,54,37,30.28,30.19,9,2,12,0.00
2013-6-23,82.6,71.8,63.9,51.3,47.9,44.1,56,43,33,30.28,30.16,9,2,11,0.00
2013-6-24,77.7,68.9,61.7,57.0,51.9,44.9,83,56,39,30.24,30.15,7,2,12,0.00
2013-6-25,70.2,63.3,60.3,60.9,58.4,55.1,94,84,72,30.29,30.21,6,2,9,0.00
2013-6-26,72.0,63.8,59.2,59.7,57.6,52.7,95,81,56,30.31,30.24,9,2,16,0.00
2013-6-27,73.2,64.4,59.4,59.3,56.5,51.5,89,76,58,30.28,30.20,11,2,16,0.00
2013-6-28,72.5,65.0,59.0,57.8,53.6,44.2,93,68,40,30.33,30.22,10,3,15,0.00
2013-6-29,79.9,68.7,59.9,54.5,49.3,42.8,68,51,39,30.33,30.21,9,3,14,0.00
2013-6-30,81.3,74.9,65.5,53.6,51.2,49.5,62,44,35,30.17,30.10,9,4,15,0.00
2013-7-1,75.4,70.3,63.7,59.5,56.7,51.7,78,63,52,30.14,30.06,9,3,12,0.00
2013-7-2,75.9,66.4,61.2,62.1,57.7,51.8,85,74,51,30.14,30.08,6,1,8,0.00
2013-7-3,83.5,72.0,61.9,64.9,60.2,50.9,89,68,39,30.17,30.11,6,1,10,0.00
2013-7-4,81.9,73.9,65.8,66.3,60.5,50.3,80,64,40,30.21,30.13,8,2,9,0.00
2013-7-5,80.1,71.1,62.2,62.6,59.9,56.7,92,69,50,30.26,30.19,11,2,16,0.00
2013-7-6,81.1,69.3,63.3,61.9,58.8,55.4,85,70,46,30.27,30.20,7,2,16,0.00
2013-7-7,79.7,71.6,61.5,63.8,58.1,52.9,86,64,46,30.26,30.18,9,2,21,0.00
2013-7-8,80.8,73.1,65.7,56.3,53.0,48.7,68,50,37,30.24,30.17,10,2,17,0.00
2013-7-9,85.5,75.7,69.4,63.3,56.2,51.7,67,51,35,30.21,30.08,8,2,14,0.00
2013-7-10,90.0,79.3,70.2,63.6,52.1,45.4,72,41,22,30.13,29.93,9,2,14,0.00
2013-7-11,85.5,76.2,70.9,62.3,55.9,45.1,74,50,36,30.01,29.92,7,2,9,0.00
2013-7-12,78.6,72.9,67.3,68.2,58.7,43.6,88,63,37,30.13,29.99,7,2,10,0.00
2013-7-13,86.5,76.5,69.8,62.3,43.0,23.8,62,33,14,30.13,30.08,8,1,11,0.00
2013-7-14,83.5,75.0,69.6,59.2,46.4,28.0,54,37,20,30.13,30.08,7,2,10,0.00
2013-7-15,79.5,72.7,67.6,66.1,58.1,42.4,77,61,33,30.20,30.13,7,3,11,0.00
2013-7-16,82.0,73.6,65.5,62.7,58.5,52.3,86,61,46,30.22,30.16,9,2,12,0.00
2013-7-17,83.7,75.9,69.1,59.6,54.0,47.5,63,47,34,30.22,30.16,8,2,12,0.00
2013-7-18,82.2,74.3,68.7,65.9,56.3,45.5,87,55,40,30.19,30.09,8,2,13,0.00
2013-7-19,82.0,73.7,69.4,64.0,57.6,47.1,78,58,38,30.13,29.99,7,2,10,0.00
2013-7-20,81.0,73.0,67.6,62.3,58.9,51.7,79,62,52,30.07,30.00,8,2,11,0.00
2013-7-21,81.1,73.4,67.8,65.2,61.2,57.4,73,66,56,30.12,30.01,9,2,12,0.00
2013-7-22,80.8,73.8,68.5,65.7,61.9,57.1,77,67,57,30.14,30.06,8,2,11,0.00
2013-7-23,81.0,74.6,67.6,67.1,61.0,45.0,78,63,36,30.10,30.02,8,2,13,0.00
2013-7-24,85.5,77.0,70.0,68.3,58.0,49.2,61,52,42,30.12,30.06,6,2,10,0.00
2013-7-25,88.2,78.1,71.4,65.5,56.3,44.7,63,47,33,30.13,29.99,6,2,11,0.00
2013-7-26,89.2,79.3,71.1,62.5,50.1,28.3,74,37,16,30.07,29.92,8,2,11,0.00
2013-7-27,85.6,77.5,72.3,59.4,47.4,31.4,51,36,19,29.99,29.91,7,1,11,0.00
2013-7-28,83.1,74.5,67.6,56.3,52.1,44.9,54,46,36,30.15,29.98,8,2,11,0.00
2013-7-29,83.3,74.8,68.2,54.9,47.1,40.8,55,38,31,30.28,30.15,13,4,19,0.00
2013-7-30,84.0,75.4,69.1,56.1,50.4,46.2,60,42,30,30.28,30.21,9,2,14,0.00
2013-7-31,82.9,74.0,66.6,55.3,51.7,44.9,64,47,29,30.24,30.11,11,3,18,0.00
2013-8-1,84.4,73.5,67.6,66.2,54.2,47.9,90,52,40,30.14,30.00,7,2,10,0.00
2013-8-2,91.8,78.3,66.9,65.4,59.0,33.3,94,55,17,30.13,30.01,10,3,17,0.05
2013-8-3,87.1,78.8,72.1,69.6,60.2,44.6,71,54,32,30.14,30.05,4,4,4,0.00
2013-8-4,83.1,76.1,71.2,70.1,61.7,48.7,89,63,40,30.17,30.10,4,4,4,0.00
2013-8-5,87.8,77.1,70.3,72.0,65.5,56.5,86,69,43,30.16,30.04,4,4,4,0.00
2013-8-6,90.7,82.6,73.2,68.1,60.1,46.5,84,49,25,30.08,29.96,6,1,10,0.00
2013-8-7,86.7,81.5,75.2,61.5,48.3,31.7,48,32,19,29.97,29.89,7,2,9,0.00
2013-8-8,86.4,78.8,70.5,65.6,53.9,43.5,84,45,28,30.18,29.92,11,4,19,0.00
2013-8-9,84.6,75.3,67.6,65.3,54.4,48.2,87,51,30,30.27,30.19,10,3,20,0.00
2013-8-10,82.9,75.3,68.7,62.7,54.5,46.8,60,49,39,30.24,30.14,9,2,13,0.00
2013-8-11,87.1,74.2,66.2,62.3,54.5,48.2,80,53,27,30.18,30.09,7,2,13,0.00
2013-8-12,86.2,76.1,68.4,66.4,59.2,46.3,79,56,32,30.13,30.02,6,2,11,0.00
2013-8-13,81.1,73.4,64.8,67.6,59.9,43.0,92,66,31,30.09,30.01,7,2,10,0.00
2013-8-14,81.7,72.5,66.0,67.7,65.3,61.6,94,79,56,30.14,30.07,10,2,16,0.00
2013-8-15,82.8,74.4,68.0,66.6,62.4,53.7,91,68,46,30.16,30.10,8,2,13,0.00
2013-8-16,85.1,77.6,71.4,61.0,56.4,48.4,69,49,37,30.17,30.07,7,2,11,0.00
2013-8-17,83.7,75.6,71.8,67.7,59.4,52.4,82,58,41,30.14,30.06,7,1,12,0.00
2013-8-18,84.6,74.2,67.5,71.4,66.5,61.0,95,78,57,30.15,30.05,5,2,9,0.00
2013-8-19,85.6,77.5,68.0,70.6,61.4,47.1,94,60,33,30.17,30.09,6,2,10,0.00
2013-8-20,83.5,78.0,71.8,70.2,60.1,46.9,81,56,33,30.19,30.12,8,2,11,0.00
2013-8-21,82.0,73.7,67.5,68.3,64.6,60.5,91,74,56,30.22,30.11,9,2,13,0.00
2013-8-22,84.4,74.8,67.5,70.2,66.7,60.5,95,77,61,30.15,29.99,6,1,8,0.00
2013-8-23,82.6,74.6,70.0,72.4,68.3,64.7,90,81,69,30.04,29.96,5,1,10,0.00
2013-8-24,84.4,75.4,69.4,68.0,63.3,47.9,89,68,40,30.06,29.97,6,1,11,0.00
2013-8-25,77.7,71.2,68.2,71.0,68.0,62.5,98,90,79,30.03,29.88,6,2,11,0.00
2013-8-26,75.9,70.8,68.2,70.2,67.1,63.0,98,88,72,29.97,29.86,8,2,11,0.03
2013-8-27,79.7,71.9,67.1,66.8,64.9,62.5,89,79,62,30.02,29.94,8,2,13,0.00
2013-8-28,79.9,71.9,67.8,68.3,65.6,62.1,92,81,57,30.06,29.98,9,2,16,0.00
2013-8-29,76.1,69.1,66.2,67.3,64.2,60.3,97,85,71,30.15,30.02,17,4,28,0.34
2013-8-30,73.9,67.7,63.3,66.2,62.7,59.1,92,84,68,30.24,30.12,7,2,10,0.00
2013-8-31,76.6,68.3,63.5,66.1,61.9,55.9,96,82,53,30.27,30.21,8,2,13,0.00
2013-9-1,76.8,68.9,63.1,64.5,60.4,56.6,93,76,51,30.28,30.22,12,3,19,0.00
2013-9-2,77.4,69.2,63.1,63.6,59.9,52.7,93,74,46,30.30,30.22,14,3,23,0.00
2013-9-3,79.5,70.0,63.5,64.3,60.7,51.6,95,75,42,30.30,30.22,13,2,17,0.00
2013-9-4,78.1,69.1,63.1,64.9,61.6,55.6,94,79,51,30.26,30.11,12,3,18,0.00
2013-9-5,77.0,68.3,64.6,64.9,63.4,60.3,97,85,61,30.15,30.02,9,2,14,0.03
2013-9-6,80.2,69.7,62.1,64.1,59.2,52.7,95,71,39,30.06,29.99,8,2,10,0.00
2013-9-7,72.0,65.3,59.4,64.0,60.2,48.5,97,85,46,30.14,30.03,13,1,19,1.05
2013-9-8,78.3,68.5,62.2,67.1,61.7,58.3,96,80,53,30.28,30.14,6,1,10,0.00
2013-9-9,78.4,69.7,63.3,66.2,60.5,55.8,89,73,57,30.30,30.22,7,2,12,0.00
2013-9-10,76.6,69.6,64.0,63.6,58.9,54.6,80,69,58,30.28,30.14,7,2,12,0.00
2013-9-11,77.5,70.4,65.1,67.1,61.9,55.1,93,75,57,30.16,30.06,8,2,13,0.00
2013-9-12,79.2,69.9,63.3,65.1,62.2,53.6,95,78,55,30.20,30.12,9,2,14,0.00
2013-9-13,77.7,68.8,65.7,66.8,64.7,61.2,96,87,61,30.28,30.18,7,2,12,0.00
2013-9-14,76.5,67.3,64.0,65.6,63.8,60.4,98,89,65,30.26,30.13,10,2,14,0.03
2013-9-15,80.6,69.7,63.0,68.6,61.8,57.3,91,77,63,30.18,30.02,6,2,11,0.00
2013-9-16,80.1,73.2,68.5,69.0,63.0,56.5,83,71,57,30.06,29.98,8,2,13,0.00
2013-9-17,84.9,77.0,72.1,65.8,57.3,51.6,60,51,42,30.02,29.96,6,2,14,0.00
2013-9-18,78.3,72.5,66.6,65.7,60.1,55.1,83,66,51,30.05,29.97,10,2,14,0.00
2013-9-19,81.9,75.0,69.8,64.1,57.3,51.4,60,54,44,30.05,30.00,6,2,11,0.00
2013-9-20,80.6,71.8,66.7,67.2,61.4,53.9,95,71,50,30.19,30.03,8,2,13,0.00
2013-9-21,76.8,68.7,64.2,67.1,64.1,61.5,95,86,69,30.30,30.19,8,2,13,0.00
2013-9-22,66.2,65.5,64.8,63.4,60.9,56.6,94,85,72,30.30,30.28,4,1,5,0.00
2013-9-24,76.8,71.6,65.7,65.9,63.5,59.9,87,76,68,30.14,30.05,5,2,10,0.00
2013-9-25,77.7,70.6,65.5,63.5,56.5,46.2,82,62,44,30.07,30.00,11,2,16,0.00
2013-9-26,79.0,71.0,65.5,64.9,55.9,40.8,90,61,34,30.06,29.98,8,2,12,0.00
2013-9-27,79.5,70.9,63.9,62.5,58.0,53.3,89,65,51,30.05,29.99,6,1,9,0.00
2013-9-28,69.1,62.8,60.1,63.3,61.1,56.4,98,95,64,30.05,29.95,7,2,12,0.57
2013-9-29,73.0,64.6,59.5,62.8,59.9,50.5,99,86,57,30.08,30.00,6,1,13,0.00
2013-9-30,77.5,69.6,63.9,67.4,62.7,56.4,87,79,68,30.08,29.97,7,2,11,0.00
2013-10-1,83.5,73.3,67.3,67.2,63.5,60.8,87,72,58,30.01,29.94,5,1,8,0.00
2013-10-2,85.5,76.2,70.3,62.2,56.3,47.4,75,51,39,29.96,29.85,6,1,9,0.00
2013-10-3,79.2,72.2,65.7,63.3,59.7,55.7,85,65,49,30.05,29.88,7,1,9,0.06
2013-10-4,79.3,71.4,66.7,65.4,60.9,56.9,81,70,59,30.17,30.03,7,2,11,0.00
2013-10-5,80.8,72.5,67.3,56.3,51.1,47.5,60,47,36,30.23,30.15,9,2,13,0.00
2013-10-6,75.0,67.9,63.3,65.2,59.6,44.7,93,76,45,30.24,30.18,7,2,15,0.00
2013-10-7,75.7,66.6,63.0,64.6,61.8,58.9,96,85,62,30.23,30.18,10,2,14,0.00
2013-10-8,75.9,66.8,61.7,62.4,59.9,57.4,95,79,56,30.25,30.18,10,2,13,0.00
2013-10-9,75.2,66.4,61.2,62.1,60.0,56.0,95,81,59,30.22,30.11,9,2,17,0.00
2013-11-2,44.1,41.8,39.9,42.3,40.0,38.1,96,93,91,29.83,29.81,2,0,3,0.00
2013-11-3,52.0,45.6,39.6,50.3,42.1,38.2,97,88,70,29.88,29.65,14,5,19,0.13
2013-11-4,60.1,46.6,39.0,48.5,41.9,37.1,94,84,58,29.87,29.34,6,1,9,0.00
2013-11-5,48.6,44.3,30.7,46.3,39.4,28.7,96,83,61,29.56,29.41,13,4,20,0.02
2013-11-6,49.3,42.6,30.9,43.5,39.4,29.1,96,89,75,29.83,29.48,16,4,24,0.18
2013-11-7,64.0,54.0,43.0,51.2,47.7,41.1,97,80,61,29.95,29.82,14,5,25,0.00
2013-11-8,63.3,47.5,37.0,53.9,44.0,35.9,98,88,62,29.95,29.81,4,0,6,0.00
2013-11-9,52.3,47.4,41.5,48.0,44.4,40.1,97,90,76,29.97,29.76,15,4,26,0.09
2013-11-10,53.2,44.2,34.2,46.0,40.9,33.1,97,89,74,29.85,29.56,7,1,11,0.01
2013-11-11,43.5,42.3,40.3,40.2,39.0,38.0,92,88,85,30.45,30.28,10,5,15,0.39
2013-11-12,44.1,38.1,32.4,38.9,35.5,31.1,97,90,80,30.44,30.22,8,2,11,0.00
2013-11-13,42.1,40.7,37.2,38.1,37.2,35.9,95,87,83,30.41,30.25,11,7,18,0.00
2013-11-20,45.3,43.1,40.1,38.5,37.6,36.5,88,81,76,29.63,29.58,11,5,15,0.00
2013-11-21,39.6,38.9,38.7,37.2,36.7,36.3,93,92,91,29.61,29.59,2,1,4,0.00
2013-11-22,42.6,42.2,41.5,41.8,40.8,39.1,97,95,91,29.75,29.67,6,3,10,0.12
2013-11-23,45.3,43.8,42.6,43.3,42.6,41.8,98,95,92,29.78,29.74,8,4,11,0.17
2013-11-24,44.1,41.8,39.7,42.5,38.3,32.8,96,87,75,29.95,29.79,10,4,14,0.79
2013-11-25,39.6,34.5,32.4,32.8,25.1,21.7,82,68,63,30.15,29.95,10,6,19,0.00
2013-11-28,31.5,30.5,29.5,28.4,26.2,22.9,91,84,74,30.45,30.38,15,10,22,0.00
2013-11-29,34.7,32.6,31.3,31.8,29.7,28.3,90,89,88,30.39,30.33,12,8,21,0.00
2013-12-1,40.6,36.2,34.3,34.3,32.1,30.6,90,85,77,30.41,30.32,12,6,15,0.01
2013-12-2,42.3,35.4,26.8,36.0,31.7,25.3,95,87,76,30.59,30.40,10,3,17,0.00
2013-12-3,37.8,30.0,24.1,32.0,27.2,22.6,95,89,79,30.56,30.38,7,2,10,0.00
2013-12-4,39.0,33.7,22.6,32.2,29.7,21.2,96,85,73,30.37,30.21,20,10,28,0.01
2013-12-5,42.1,37.6,35.8,35.6,33.8,31.6,90,86,76,30.35,29.83,17,8,27,0.05
2013-12-6,42.4,36.5,32.9,37.7,31.9,29.0,91,83,72,30.01,29.77,22,14,36,0.13
2013-12-7,36.9,33.9,30.6,33.3,30.5,28.4,96,87,74,30.26,30.01,17,10,28,0.43
2013-12-8,40.3,38.0,35.8,36.3,34.9,33.1,91,89,82,30.35,30.24,13,6,17,0.02
2013-12-9,42.4,41.6,39.7,39.6,37.2,34.2,91,84,75,30.42,30.26,16,12,26,0.05
2013-12-10,46.8,42.5,39.0,43.1,40.3,37.7,96,92,86,30.62,30.42,13,5,19,0.00
2013-12-11,40.5,38.1,36.5,39.0,35.7,33.5,95,91,87,30.61,30.55,3,1,7,0.00
2013-12-12,36.3,34.0,31.6,34.9,33.2,31.1,98,97,94,30.56,30.41,5,1,7,0.00
2013-12-13,35.1,33.6,31.6,33.5,32.4,31.1,98,95,92,30.40,30.29,9,4,16,0.01
2013-12-14,38.1,34.8,33.3,35.2,32.7,32.0,96,92,88,30.50,30.30,15,8,21,0.00
2013-12-15,43.7,39.7,36.7,37.4,35.7,33.8,92,85,74,30.52,30.48,14,7,21,0.00
2013-12-16,38.7,32.3,29.5,35.8,30.9,28.2,98,94,88,30.56,30.50,8,3,11,0.00
2013-12-17,29.5,28.7,27.7,28.7,27.1,26.4,97,94,91,30.54,30.44,8,2,12,0.00
2013-12-18,28.2,27.5,26.8,26.8,26.0,25.5,96,94,92,30.43,30.20,6,2,9,0.00
2013-12-19,27.3,26.7,26.1,25.3,24.5,24.0,92,91,89,30.19,30.05,6,2,10,0.00
2013-12-20,34.3,30.4,26.2,32.1,28.4,24.2,94,92,89,30.54,30.14,12,5,16,0.00
2013-12-21,36.1,32.3,28.4,35.6,31.3,27.2,98,96,91,30.59,30.45,7,1,9,0.00
2013-12-22,33.6,31.8,29.5,33.1,31.2,29.0,98,98,97,30.45,30.27,4,1,5,0.01
2013-12-23,44.6,34.9,30.7,40.5,33.6,30.2,98,95,83,30.29,30.06,8,2,11,0.00
2013-12-24,38.5,35.8,32.7,38.0,35.3,32.2,98,98,97,30.06,29.65,5,2,8,0.00
2013-12-25,55.8,38.6,30.2,44.1,35.1,29.7,99,89,55,29.64,29.40,6,1,10,0.00
2013-12-26,58.5,48.4,38.7,46.0,41.5,35.7,89,77,60,29.64,29.29,12,6,18,0.00
2013-12-27,44.4,40.5,30.7,39.0,36.7,28.7,92,86,77,29.88,29.65,11,4,15,0.00
2013-12-28,46.8,34.0,26.1,41.2,32.3,24.6,98,94,81,29.85,29.70,6,2,9,0.01
2013-12-29,44.2,39.7,32.9,39.8,36.5,32.1,97,88,78,30.31,29.78,14,5,19,0.00
2013-12-30,41.5,37.6,32.5,36.6,34.7,30.7,95,89,81,30.42,30.30,4,1,7,0.00
2013-12-31,38.5,36.8,35.2,37.3,35.0,33.3,96,93,87,30.29,30.04,5,2,8,0.04
2014-1-1,40.8,35.1,29.5,35.1,32.4,27.5,96,90,71,30.10,29.94,8,2,14,0.00
2014-1-2,39.4,33.1,25.9,34.3,30.9,24.7,96,91,81,29.96,29.81,6,1,8,0.02